User: anonymous   Login
Location: Staunton
(38.1490°N, 79.0720°W)
Time: 08:14:59
(UTC-04:00)
Language:

ISS - Orbit

View from above orbital plane
View from above orbital plane
View from above satellite
View from above satellite

Ground track
Ground track

The orbit data is extracted from the following two-line orbital elements,

1 25544U 98067A   19295.90328103  .00016717  00000-0  10270-3 0  9054
2 25544  51.6414  87.9950 0006787 178.5256 181.5916 15.50211859 35065
Epoch (UTC): 22 October 2019 21:40:43
Eccentricity: 0.0006787
inclination: 51.6414°
perigee height: 411 km
apogee height: 421 km
right ascension of ascending node: 87.9950°
argument of perigee: 178.5256°
revolutions per day: 15.50211859
mean anomaly at epoch: 181.5916°
orbit number at epoch: 3506

The dashed part of the orbit path shows where the satellite is in the earth's shadow,  

DLR